BCS2211 EGSS-EDDP

Flight info

Callsign BCS2211
Flight time 1h 7m
Altitude 33000
Route CLN5S CLN P44 RATLO M197 REDFA DCT TACHA DCT NORTA/N0431F230 DCT ADMOS T959 KOJEC KOJEC1V
Aircraft B77L/H-SDE1E2E3FGHIJ2J3J4J5M1RWXY/LB1D1

Departure

Time 2026-05-04 09:04
Airport London Stansted Airport (EGSS)

Arrival

Time 2026-05-04 10:12
Airport Leipzig/Halle Airport (EDDP)
Time Latitude Longitude Altitude Speed Heading
2026-05-04 09:04 51.90565 0.35684 3992 ft 267 kts 117°
2026-05-04 09:04 51.89717 0.38373 4006 ft 267 kts 116°
2026-05-04 09:04 51.88899 0.41062 3990 ft 264 kts 115°
2026-05-04 09:05 51.88102 0.43722 3988 ft 262 kts 115°
2026-05-04 09:05 51.87315 0.46377 4001 ft 262 kts 115°
2026-05-04 09:05 51.86527 0.49051 4005 ft 264 kts 115°
2026-05-04 09:05 51.85735 0.51744 4004 ft 265 kts 115°
2026-05-04 09:06 51.84944 0.54436 4401 ft 265 kts 115°
2026-05-04 09:07 51.84733 0.75547 10452 ft 298 kts 75°
2026-05-04 09:08 51.85293 0.78854 10999 ft 315 kts 75°
2026-05-04 09:08 51.85888 0.82422 11202 ft 342 kts 76°
2026-05-04 09:08 51.86526 0.86287 11417 ft 369 kts 76°
2026-05-04 09:08 51.87196 0.90387 11964 ft 383 kts 76°
2026-05-04 09:09 51.87875 0.94572 12706 ft 392 kts 76°
2026-05-04 09:09 51.88569 0.98877 13551 ft 398 kts 76°
2026-05-04 09:09 51.89270 1.03250 14332 ft 404 kts 76°
2026-05-04 09:09 51.89978 1.07685 15151 ft 407 kts 76°
2026-05-04 09:10 51.90689 1.12149 15964 ft 411 kts 76°
2026-05-04 09:10 51.91403 1.16655 16746 ft 416 kts 77°
2026-05-04 09:10 51.92125 1.21218 17503 ft 420 kts 77°
2026-05-04 09:10 51.92852 1.25829 18274 ft 425 kts 77°
2026-05-04 09:11 51.93587 1.30506 18920 ft 430 kts 77°
2026-05-04 09:11 51.94328 1.35233 19529 ft 436 kts 77°
2026-05-04 09:11 51.95069 1.39969 20112 ft 441 kts 76°
2026-05-04 09:11 51.95827 1.44830 20707 ft 447 kts 76°
2026-05-04 09:12 51.96592 1.49749 21287 ft 452 kts 76°
2026-05-04 09:12 51.97365 1.54736 21873 ft 458 kts 76°
2026-05-04 09:14 52.02933 1.91133 25611 ft 489 kts 78°
2026-05-04 09:14 52.03737 1.96455 26055 ft 493 kts 78°
2026-05-04 09:14 52.04555 2.01896 26436 ft 500 kts 78°
2026-05-04 09:14 52.05384 2.07428 26883 ft 504 kts 78°
2026-05-04 09:15 52.06216 2.12993 27353 ft 508 kts 79°
2026-05-04 09:15 52.07049 2.18582 27834 ft 511 kts 79°
2026-05-04 09:15 52.07604 2.22319 28129 ft 513 kts 79°
2026-05-04 09:15 52.08442 2.27980 28550 ft 517 kts 79°
2026-05-04 09:17 52.16151 2.73363 32629 ft 514 kts 75°
2026-05-04 09:18 52.17212 2.78926 33048 ft 514 kts 75°
2026-05-04 09:18 52.18265 2.84516 32992 ft 517 kts 75°
2026-05-04 09:18 52.20337 2.95619 32989 ft 512 kts 75°
2026-05-04 09:19 52.22408 3.06782 33007 ft 516 kts 75°
2026-05-04 09:19 52.24418 3.18069 33020 ft 518 kts 79°
2026-05-04 09:20 52.25354 3.29682 33009 ft 515 kts 90°
2026-05-04 09:20 52.25145 3.41291 33003 ft 510 kts 96°
2026-05-04 09:21 52.24702 3.52827 32993 ft 508 kts 97°
2026-05-04 09:21 52.24275 3.64275 33000 ft 508 kts 96°
2026-05-04 09:22 52.23867 3.75770 33002 ft 508 kts 96°
2026-05-04 09:22 52.23460 3.87275 33004 ft 508 kts 96°
2026-05-04 09:23 52.23041 3.98782 32987 ft 508 kts 96°
2026-05-04 09:23 52.22607 4.10305 33002 ft 509 kts 96°
2026-05-04 09:25 52.20751 4.56481 32981 ft 512 kts 97°
2026-05-04 09:26 52.20257 4.68059 32983 ft 512 kts 97°
2026-05-04 09:26 52.19756 4.79560 32991 ft 511 kts 97°
2026-05-04 09:27 52.19242 4.91084 32990 ft 511 kts 97°
2026-05-04 09:27 52.18718 5.02555 32979 ft 510 kts 97°
2026-05-04 09:28 52.18181 5.14096 32987 ft 511 kts 97°
2026-05-04 09:28 52.17631 5.25649 32980 ft 511 kts 98°
2026-05-04 09:29 52.17070 5.37199 32983 ft 512 kts 98°
2026-05-04 09:29 52.16508 5.48539 32976 ft 512 kts 98°
2026-05-04 09:30 52.15928 5.60031 32986 ft 512 kts 98°
2026-05-04 09:30 52.15330 5.71622 32996 ft 513 kts 98°
2026-05-04 09:31 52.14722 5.83207 32998 ft 513 kts 98°
2026-05-04 09:31 52.14106 5.94722 32978 ft 513 kts 98°
2026-05-04 09:32 52.13475 6.06311 32981 ft 513 kts 98°
2026-05-04 09:34 52.10843 6.52521 32988 ft 511 kts 99°
2026-05-04 09:34 52.10159 6.64027 32993 ft 510 kts 99°
2026-05-04 09:35 52.09464 6.75521 32990 ft 510 kts 99°
2026-05-04 09:35 52.08757 6.87031 32989 ft 511 kts 99°
2026-05-04 09:37 52.05821 7.32958 32998 ft 512 kts 99°
2026-05-04 09:38 52.05057 7.44474 32988 ft 512 kts 99°
2026-05-04 09:38 52.04286 7.55905 32994 ft 512 kts 100°
2026-05-04 09:39 52.03501 7.67381 32994 ft 511 kts 100°
2026-05-04 09:39 52.02704 7.78863 32996 ft 511 kts 100°
2026-05-04 09:40 52.01897 7.90341 32988 ft 511 kts 100°
2026-05-04 09:40 52.01079 8.01808 32987 ft 510 kts 100°
2026-05-04 09:42 51.97719 8.47288 32984 ft 509 kts 101°
2026-05-04 09:43 51.96848 8.58695 32976 ft 509 kts 101°
2026-05-04 09:43 51.95969 8.70075 32980 ft 508 kts 101°
2026-05-04 09:44 51.95081 8.81412 33001 ft 506 kts 101°
2026-05-04 09:46 51.91422 9.26690 33005 ft 509 kts 101°
2026-05-04 09:46 51.90475 9.38068 32997 ft 510 kts 101°
2026-05-04 09:47 51.89522 9.49376 33009 ft 510 kts 101°
2026-05-04 09:49 51.85009 9.94562 33002 ft 505 kts 107°
2026-05-04 09:51 51.79614 10.33105 30767 ft 491 kts 106°
2026-05-04 09:51 51.78865 10.38456 30267 ft 486 kts 106°
2026-05-04 09:51 51.78116 10.43769 29729 ft 482 kts 106°
2026-05-04 09:51 51.77373 10.49019 29192 ft 477 kts 106°
2026-05-04 09:52 51.76635 10.54219 28696 ft 472 kts 106°
2026-05-04 09:52 51.75913 10.59285 28201 ft 467 kts 106°
2026-05-04 09:52 51.75184 10.64380 27715 ft 463 kts 106°
2026-05-04 09:52 51.74462 10.69417 27221 ft 459 kts 106°
2026-05-04 09:53 51.73741 10.74427 26733 ft 455 kts 106°
2026-05-04 09:53 51.73026 10.79386 26267 ft 451 kts 106°
2026-05-04 09:53 51.72259 10.84269 25806 ft 446 kts 110°
2026-05-04 09:53 51.71220 10.88932 25343 ft 440 kts 115°
2026-05-04 09:54 51.70088 10.93480 24901 ft 437 kts 115°
2026-05-04 09:54 51.68956 10.98020 24424 ft 434 kts 115°
2026-05-04 09:54 51.67840 11.02536 23964 ft 432 kts 115°
2026-05-04 09:54 51.66739 11.07029 23493 ft 431 kts 115°
2026-05-04 09:55 51.65659 11.11455 22964 ft 428 kts 115°
2026-05-04 09:55 51.64575 11.15900 22494 ft 425 kts 115°
2026-05-04 09:55 51.63495 11.20313 22034 ft 421 kts 115°
2026-05-04 09:55 51.62373 11.24633 21602 ft 415 kts 119°
2026-05-04 09:56 51.61115 11.28793 20968 ft 415 kts 116°
2026-05-04 09:56 51.60205 11.33248 20406 ft 419 kts 105°
2026-05-04 09:56 51.59668 11.37855 19948 ft 418 kts 103°
2026-05-04 09:56 51.59137 11.42443 19514 ft 415 kts 104°
2026-05-04 09:57 51.58584 11.46927 19191 ft 413 kts 104°
2026-05-04 09:57 51.58012 11.51434 18942 ft 410 kts 104°
2026-05-04 09:57 51.57440 11.55890 18694 ft 406 kts 104°
2026-05-04 09:57 51.56866 11.60340 18396 ft 404 kts 104°
2026-05-04 09:58 51.56294 11.64772 18065 ft 403 kts 104°
2026-05-04 09:58 51.55725 11.69175 17740 ft 401 kts 104°
2026-05-04 09:58 51.55158 11.73553 17439 ft 399 kts 104°
2026-05-04 10:00 51.53965 12.03783 14166 ft 372 kts 86°
2026-05-04 10:00 51.54166 12.07833 13528 ft 355 kts 86°
2026-05-04 10:02 51.55337 12.32853 9101 ft 315 kts 87°
2026-05-04 10:04 51.54912 12.53680 4872 ft 259 kts 114°
2026-05-04 10:04 51.54216 12.56325 4200 ft 254 kts 114°
2026-05-04 10:04 51.53510 12.58966 3636 ft 262 kts 114°
2026-05-04 10:04 51.52730 12.61596 3174 ft 256 kts 127°
2026-05-04 10:05 51.51449 12.63417 3009 ft 240 kts 158°
2026-05-04 10:05 51.49907 12.63879 2993 ft 211 kts 183°
2026-05-04 10:05 51.48542 12.63511 2952 ft 189 kts 203°
2026-05-04 10:05 51.47348 12.62719 3022 ft 185 kts 205°
2026-05-04 10:06 51.46224 12.61987 2976 ft 169 kts 204°
2026-05-04 10:06 51.45179 12.61281 2957 ft 159 kts 205°
2026-05-04 10:06 51.44150 12.60587 3011 ft 163 kts 206°
2026-05-04 10:08 51.42557 12.50484 2991 ft 170 kts 265°
2026-05-04 10:08 51.42467 12.48572 3010 ft 172 kts 265°
2026-05-04 10:08 51.42376 12.46650 3002 ft 173 kts 264°
2026-05-04 10:08 51.42287 12.44721 2813 ft 174 kts 265°
2026-05-04 10:09 51.42199 12.42807 2579 ft 167 kts 265°
2026-05-04 10:09 51.42116 12.41036 2383 ft 152 kts 265°
2026-05-04 10:09 51.42041 12.39420 2175 ft 145 kts 265°
2026-05-04 10:09 51.41968 12.37817 2014 ft 147 kts 264°
2026-05-04 10:10 51.41890 12.36180 1821 ft 147 kts 264°
2026-05-04 10:10 51.41816 12.34551 1600 ft 144 kts 264°
2026-05-04 10:10 51.41744 12.32954 1421 ft 146 kts 266°
2026-05-04 10:10 51.41666 12.31314 1226 ft 148 kts 265°
2026-05-04 10:11 51.41579 12.29669 1004 ft 147 kts 266°
2026-05-04 10:11 51.41505 12.28025 815 ft 147 kts 266°
2026-05-04 10:11 51.41434 12.26442 631 ft 144 kts 266°
2026-05-04 10:11 51.41362 12.24821 474 ft 144 kts 266°
2026-05-04 10:12 51.41299 12.23415 468 ft 103 kts 265°
2026-05-04 10:12 51.41241 12.22701 464 ft 37 kts 238°
2026-05-04 10:12 51.41182 12.22555 462 ft 10 kts 236°
2026-05-04 10:12 51.41113 12.22512 461 ft 14 kts 174°
2026-05-04 10:13 51.41090 12.22671 463 ft 20 kts 83°
2026-05-04 10:13 51.41107 12.22933 468 ft 27 kts 84°
2026-05-04 10:13 51.41121 12.23265 468 ft 32 kts 86°
2026-05-04 10:13 51.41129 12.23584 470 ft 21 kts 103°
2026-05-04 10:14 51.41061 12.23785 468 ft 21 kts 97°
2026-05-04 10:14 51.41068 12.24020 470 ft 22 kts 85°
2026-05-04 10:16 51.40933 12.24326 469 ft 0 kts 83°
2026-05-04 10:16 51.40934 12.24331 469 ft 1 kts 84°
2026-05-04 10:16 51.40934 12.24337 469 ft 1 kts 84°
2026-05-04 10:16 51.40934 12.24341 469 ft 0 kts 84°